Regional Weather Roundup
Issued by NWS

Home | Current Version | Previous Version | Graphics & Text | Print | Product List | Glossary On
Versions: 1 2 3 4 5 6 7 8 9 10 11 12 13 14 15 16 17 18 19 20 21 22 23 24 25 26 27 28 29 30 31 32 33 34 35 36 37 38 39 40 41 42 43 44 45 46 47 48 49 50
000
ASUS45 KSLC 250710
RWRUT

UTAH REGIONAL WEATHER ROUNDUP
NATIONAL WEATHER SERVICE SALT LAKE CITY UT
100 AM MDT SAT MAR 25 2017

UTZ001>011-023>025-250800-

NORTHERN UTAH

CITY           SKY/WX    TMP DP  RH WIND       PRES   REMARKS
BRIGHAM CITY     N/A     49  38  66 CALM      30.03F
HILL AFB       CLOUDY    48  30  49 E15       30.01F
LOGAN          CLOUDY    47  41  80 CALM      30.03F
OGDEN          CLOUDY    47  35  63 SW5       30.01F
SALT LAKE CITY CLOUDY    53  34  48 SE15      30.00F
WENDOVER       CLOUDY    54  35  48 N10       30.03R
HEBER CITY     MOCLDY    39  28  65 SW3       30.07S

$$

UTZ011>015-024>027-250800-

CENTRAL/NORTHEAST UTAH

CITY           SKY/WX    TMP DP  RH WIND       PRES   REMARKS
PROVO AIRPORT  MOCLDY    49  33  54 S12       30.07R
MOAB/CANYONLAN CLEAR     42  22  44 E3        30.08F
DELTA          MOCLDY    46  32  57 S13       30.05F
PRICE          CLEAR     39  33  79 NE8       30.12F WCI  33
ROOSEVELT      CLEAR     37  34  87 W5        30.13F WCI  34
VERNAL         CLOUDY    40  33  76 CALM      30.11F

$$

UTZ013>016-019>022-027-250800-

SOUTHERN UTAH

CITY           SKY/WX    TMP DP  RH WIND       PRES   REMARKS
BRYCE CANYON   PTCLDY    30  24  78 W5        30.20F WCI  25
CEDAR CITY     PTCLDY    46  27  47 W8        30.11R
MILFORD        PTCLDY    45  26  47 SW16      30.09S
ST GEORGE      PTSUNNY   56  32  40 NE5       30.07F
HANKSVILLE     CLEAR     43  30  61 CALM      30.11S
BLANDING       CLEAR     37  21  52 N6        30.22F WCI  33

$$

REGIONAL REPORTS     COLORADO/ARIZONA

CITY           SKY/WX    TMP DP  RH WIND       PRES   REMARKS
CRAIG, CO      CLOUDY    28  22  78 CALM      30.16S
GRAND JUNCTION CLEAR     43  28  55 E8        30.12F
RIFLE, CO      CLOUDY    36  28  73 W6        30.17R WCI  31
MONTROSE, CO   CLOUDY    40  29  64 E12       30.18F WCI  33
CORTEZ, CO     CLOUDY    33  28  81 NE7       30.18S WCI  27
COLORADO CITY    N/A     41  36  81 SE5       30.17F
PAGE, AZ       CLEAR     51  30  44 CALM      30.11S
GRAND CANYON   CLEAR     30  29  96 CALM      30.24S
KINGMAN, AZ    PTCLDY    49  26  41 SE10      30.13F
FLAGSTAFF, AZ  CLEAR     30  28  92 S3        30.24F

$$

REGIONAL REPORTS    NEVADA/IDAHO/WYOMING

CITY           SKY/WX    TMP DP  RH WIND       PRES   REMARKS
LAS VEGAS, NV  MOCLDY    67  20  16 S10       30.01S
ELY, NY        CLOUDY    45  27  49 SW12      30.07F
ELKO, NV       LGT RAIN  42  39  89 S6        30.09S
POCATELLO, ID  CLOUDY    44  42  93 SW13      30.07S
BURLEY, ID     LGT RAIN  44  40  85 SW9       30.07S
FORT BRIDGER,  CLOUDY    39  32  76 NW5       30.12S
EVANSTON, WY   CLOUDY    40  25  55 SW14      30.09S WCI  32
ROCK SPRINGS,  CLOUDY    41  31  67 S7        30.07F
KEMMERER, WY     N/A     34  27  75 CALM      30.10F

$$



USA.gov is the U.S. government's official web portal to all federal, state and local government web resources and services.